ONEWEB-0209 (48215 NORAD) Tracking and Keplerian Element Data

This shows tracking and keplerian element data for the satellite.

Feedback or suggestion? Click here.




ElementValue
Catalog48215
NameONEWEB-0209
Epoch Orbit183
Epoch Day136.75001157
Epoch Year2021
RAAN305.7554
Inclination87.4211
Eccentricity0.000906
Argument of Perigee187.0466
Mean Anonmoly107.0238
Mean Motion15.35039141
Decay Rate-0.01368897
L11 48215U 21031F 21136.75001157 -.01368897 00000-0 -44210-1 0 9992
L22 48215 87.4211 305.7554 0009060 187.0466 107.0238 15.35039141 1836

Live tracking and technical data element details for ONEWEB-0209 (NORAD 48215). ONEWEB-0209 can be tracked NOW for your location showing map with azimuth and elevation plus other details from your city location.

Track the satellite on the map from your city or location and see movement details for azimuth, elevation, latitude, longitude, range, height, and movement on the map or in text.







IsCatalogInMostPopularTable: catalog: 48215, numindb: 5
Update: records affected: 1



GetName: 48215 ONEWEB-0209

Hit Count: updated at: Mon, 17 May 2021 15:32:39 GMT